Wind_Speed
19 20 22 22 21 20 19 20 21 21 20 19 18 18 17 15 14 14 13 11 11 11 9 10 9 8 8 7 7 7 6 5 4 4 4 3 3 2 3 5 6 7
20 20 21 22 21 21 20 21 21 21 20 19 18 17 16 15 14 13 13 12 12 11 10 11 11 10 9 8 8 8 7 7 6 5 4 3 3 4 5 5 6 7
21 21 21 21 21 21 21 22 21 20 19 18 19 18 17 16 15 14 13 13 13 13 12 12 12 12 11 10 9 8 8 8 7 6 6 4 4 6 6 6 6 5
22 22 21 21 20 20 21 21 21 21 19 18 18 19 17 16 16 15 14 14 14 14 14 13 13 13 13 12 11 9 9 9 8 7 7 6 6 6 6 6 6 5
24 23 22 21 20 20 20 20 21 21 19 18 17 17 17 16 16 15 15 15 15 14 14 14 13 12 12 13 12 10 9 9 8 7 7 7 7 6 5 5 4 5
25 24 23 21 19 20 19 19 20 19 19 19 17 16 16 17 17 16 15 16 15 13 14 14 13 11 10 12 13 11 10 9 8 7 6 7 6 6 5 5 5 6
26 25 24 22 20 19 20 19 19 18 18 18 17 17 17 17 18 17 16 16 16 14 14 15 14 12 10 10 12 12 11 10 9 7 7 8 7 7 6 6 6 6
25 25 24 23 21 20 20 20 19 19 19 18 18 18 18 17 17 18 17 17 17 16 16 15 14 13 12 12 12 12 11 10 10 9 9 9 9 8 7 6 7 7
24 24 23 22 22 22 21 21 20 19 18 18 18 18 18 17 17 17 17 17 17 17 17 16 15 13 13 14 13 13 12 11 11 11 11 10 10 10 9 7 7 8
25 25 24 23 21 21 22 20 20 20 19 18 18 18 18 18 18 18 18 17 16 16 16 16 16 15 15 14 14 13 13 11 10 11 12 11 10 10 9 8 9 9
26 26 26 25 23 21 22 20 19 20 20 20 19 19 19 18 18 18 19 18 17 16 15 15 16 16 16 16 15 14 13 12 11 10 11 10 9 9 9 9 10 11
27 27 27 26 25 23 23 22 21 21 21 21 20 20 20 19 18 18 18 19 18 17 16 16 16 17 17 16 15 15 14 13 12 11 11 11 10 9 9 10 11 11
29 29 27 26 25 24 23 22 22 22 22 21 20 20 21 20 20 20 19 19 19 18 18 16 15 16 16 16 16 15 14 14 14 13 13 12 11 11 11 12 12 12
29 29 28 26 24 23 23 22 23 23 22 21 21 20 21 21 20 20 20 20 19 19 19 17 16 16 15 15 15 15 15 14 13 12 13 13 13 13 13 13 14 14
28 27 26 26 25 24 23 23 23 24 23 23 23 22 22 22 21 20 20 21 18 18 20 19 17 16 15 15 15 14 15 15 14 12 12 12 13 13 14 14 14 13
29 28 26 25 25 25 25 25 24 25 26 26 25 24 24 24 22 21 21 21 18 18 21 20 18 16 16 16 16 16 15 15 15 14 13 12 11 10 11 12 11 9
30 28 27 27 25 23 24 26 24 22 25 28 28 27 26 25 23 22 22 21 20 19 20 20 19 17 17 17 18 18 18 17 16 16 15 14 13 10 8 8 7 7
30 28 27 25 21 18 20 23 22 19 20 24 27 27 27 25 23 23 22 21 21 21 20 20 20 19 18 19 19 19 19 19 18 17 16 15 15 12 10 8 9 8
27 27 27 25 21 17 16 18 19 18 18 19 22 25 25 24 23 23 23 23 22 21 20 20 21 21 21 21 20 19 19 19 19 18 17 15 14 13 12 11 10 9
19 18 16 15 17 18 19 19 19 19 18 17 17 19 21 21 21 21 22 22 22 20 20 21 21 21 21 21 21 20 19 19 19 18 17 14 12 13 13 12 10 9
16 15 11 5 3 7 12 15 16 18 18 17 16 16 17 18 19 19 20 20 20 20 20 20 20 20 19 19 19 18 17 17 17 16 15 14 13 12 12 11 10 9
14 16 16 12 8 8 8 8 10 15 16 16 15 16 16 16 17 18 18 19 19 19 19 19 18 17 17 15 15 14 14 14 14 15 15 14 13 12 11 10 9 9
13 14 13 15 17 18 15 11 12 14 14 13 12 13 15 16 16 15 15 16 17 18 18 17 17 16 15 14 13 12 12 12 13 13 13 13 11 10 9 8 8 8
13 13 11 12 16 18 18 16 16 17 16 13 11 12 14 14 14 14 13 13 14 15 14 14 14 14 13 13 12 12 12 12 12 11 11 10 9 8 8 8 7 7
11 12 12 12 13 15 17 18 17 15 12 12 12 13 13 13 12 12 11 10 10 11 11 11 11 10 9 10 10 11 11 11 11 10 10 9 9 9 9 8 8 7
10 10 11 12 14 16 19 20 18 13 9 8 9 10 12 12 11 10 10 10 9 8 8 8 8 7 6 6 7 9 11 11 10 11 12 11 11 12 11 10 9 8
Wind_Direction
200 201 201 201 201 202 201 197 197 201 204 205 207 207 209 214 216 216 213 205 203 206 207 210 215 213 212 220 225 223 230 237 236 248 263 270 279 290 307 329 346 349
202 202 201 203 204 205 205 203 203 207 209 211 211 210 212 216 218 215 211 209 210 209 206 210 217 216 216 222 221 217 221 226 226 231 241 249 267 284 289 297 325 348
202 201 199 201 205 206 207 207 209 211 213 214 213 212 213 214 217 216 215 217 216 213 211 214 220 221 224 228 221 216 220 225 226 226 232 247 273 279 275 279 301 335
199 200 201 202 205 207 207 208 211 213 214 214 211 213 214 212 215 219 223 223 219 217 216 219 226 229 232 231 223 220 225 229 232 235 241 250 265 274 274 278 289 314
199 200 202 203 205 207 208 209 211 213 213 212 209 211 212 210 214 222 224 217 215 219 219 220 230 235 232 225 220 224 232 235 235 240 252 254 261 277 278 271 282 306
202 203 203 204 204 205 208 209 208 210 211 210 210 213 212 211 216 220 216 210 212 221 221 221 230 236 227 220 221 228 236 241 238 240 262 267 271 282 271 257 279 304
204 205 205 205 205 207 211 211 210 210 210 210 213 217 216 213 215 216 215 215 218 222 221 222 231 234 227 223 227 232 237 243 238 240 262 272 276 281 271 260 274 291
205 206 205 206 208 211 212 213 213 213 212 214 216 219 219 214 213 215 218 221 223 223 221 222 229 233 229 229 234 238 242 244 239 238 254 265 268 274 273 265 270 281
206 205 205 207 211 214 214 214 214 213 212 214 216 218 219 215 214 217 219 221 223 223 221 221 227 231 231 230 232 238 245 247 244 241 247 258 265 270 274 272 271 276
207 205 206 209 213 215 214 214 215 214 212 215 217 218 218 214 215 220 221 220 221 222 220 220 223 226 229 229 230 236 243 247 249 246 246 255 266 267 266 268 271 273
210 208 209 211 213 212 213 216 218 215 214 216 219 220 220 216 215 219 222 221 221 221 221 222 225 229 230 229 230 235 240 245 252 250 245 251 262 264 261 263 266 269
212 210 210 212 213 214 217 219 219 216 215 218 221 221 220 219 217 219 221 221 222 223 221 223 229 231 230 228 229 233 238 245 251 250 247 251 256 257 258 260 260 264
213 211 210 211 213 215 218 219 217 217 218 218 219 220 220 219 220 223 224 224 226 225 221 222 226 227 226 228 230 233 237 244 251 251 249 251 254 257 260 262 262 265
212 211 211 213 213 215 219 219 215 216 220 219 216 218 219 218 218 221 224 227 229 228 223 221 222 223 225 228 230 231 235 242 250 252 248 248 251 256 260 264 268 271
210 210 213 216 216 217 221 223 221 217 218 219 218 218 218 217 217 219 222 224 226 226 223 222 223 225 229 231 230 229 233 241 248 249 247 250 253 256 260 264 271 278
210 212 215 217 219 222 222 224 225 222 221 221 221 221 219 216 216 216 217 220 221 220 220 223 227 229 231 234 233 233 235 240 245 247 247 250 255 263 265 263 268 278
211 213 215 218 222 225 224 224 226 225 225 225 224 222 221 217 216 214 214 217 220 220 221 224 228 228 228 229 230 232 235 238 241 246 247 246 249 255 254 249 255 267
210 212 213 215 218 220 223 225 223 217 217 221 223 223 221 218 215 215 214 214 215 217 220 223 225 227 227 228 230 232 235 238 241 245 248 249 249 245 237 235 245 256
211 213 212 214 217 218 220 217 209 201 201 209 215 218 218 216 216 217 216 213 213 216 222 224 224 226 229 233 237 236 235 236 240 244 247 249 245 233 228 236 244 252
209 210 209 215 219 218 216 211 203 198 196 195 197 201 204 206 209 211 212 212 212 215 221 223 222 224 229 234 238 240 241 241 244 244 241 237 229 222 226 237 245 253
198 197 193 200 228 218 217 214 207 202 198 193 186 185 189 192 194 195 197 200 202 205 211 214 215 218 222 228 234 240 242 243 242 236 227 222 220 222 228 235 242 253
192 196 196 200 206 214 226 231 220 212 206 198 188 184 187 189 189 190 191 191 191 195 200 203 204 207 210 214 222 227 229 231 229 222 218 219 221 223 226 232 242 251
197 200 201 201 202 207 219 241 250 238 224 213 202 195 196 196 196 196 195 193 191 193 199 202 202 205 208 209 212 214 214 214 213 211 212 215 217 218 223 229 239 247
195 196 196 202 207 211 217 233 252 252 239 228 219 211 207 204 202 199 198 199 197 196 199 204 205 206 209 210 211 211 210 209 209 209 209 209 207 206 214 223 230 238
188 190 195 205 217 224 225 230 241 243 233 224 218 215 212 207 203 200 196 193 196 198 200 203 204 204 207 212 214 214 213 211 210 209 206 205 204 199 199 208 221 229
163 178 193 204 213 220 224 227 229 225 223 221 210 203 203 201 198 194 184 175 177 184 187 189 191 190 191 201 213 218 216 216 222 225 220 211 202 194 190 193 201 204
Height
854 855 856 856 858 859 860 860 861 862 863 864 865 865 866 867 868 868 869 869 870 870 870 871 871 872 872 872 872 873 873 873 873 873 873 873 873 873 873 873 873 873
853 853 855 856 856 858 858 859 860 861 862 863 864 865 865 866 867 867 868 869 869 870 870 871 871 871 872 872 872 872 872 873 873 873 873 873 873 873 873 873 873 873
852 852 853 854 855 856 857 858 859 860 861 862 863 864 864 865 866 866 867 868 869 869 870 870 871 871 871 871 872 872 872 872 872 873 873 873 873 873 873 873 873 873
850 851 852 853 854 855 856 856 857 858 859 860 861 862 863 864 865 865 866 867 868 868 869 869 870 870 871 871 871 871 871 872 872 872 872 872 872 872 872 873 872 872
849 850 851 852 853 854 855 855 856 857 858 859 860 861 862 863 864 864 865 866 867 867 868 869 869 869 870 870 870 871 871 871 871 872 872 872 872 872 872 872 872 872
848 849 850 851 852 853 854 854 855 856 857 858 859 860 861 861 862 863 864 865 866 866 867 867 868 868 869 869 870 870 870 870 871 871 871 871 871 871 871 871 871 871
847 848 849 850 851 852 852 853 854 855 856 857 857 858 859 860 861 862 863 864 865 865 866 866 867 867 868 869 869 869 869 870 870 870 870 870 870 870 870 870 870 870
846 847 848 850 850 851 852 852 853 854 855 856 856 857 858 859 860 861 862 863 863 864 865 865 866 866 867 868 868 869 869 869 869 869 869 869 869 869 869 870 870 870
846 847 848 849 850 850 851 851 852 853 854 854 855 856 857 857 859 859 860 861 862 863 863 864 865 866 866 867 867 868 868 868 869 869 869 869 869 869 869 869 869 869
845 846 847 848 849 849 850 851 851 852 853 853 854 855 855 856 857 858 859 860 861 861 862 863 864 864 865 866 866 867 867 867 868 868 868 868 868 868 868 869 868 868
844 845 846 847 848 849 849 850 851 851 852 852 853 853 854 855 856 857 857 858 859 860 861 861 862 863 864 864 865 865 866 866 867 867 867 867 867 868 868 868 868 867
843 844 845 846 847 848 848 849 850 850 851 851 852 852 853 854 855 856 856 857 858 859 859 860 861 861 862 863 863 864 865 865 865 866 866 866 866 867 867 867 867 866
841 842 844 845 846 847 847 848 848 849 849 850 850 851 852 853 853 854 855 856 857 857 858 858 859 859 860 861 862 863 863 864 864 864 865 866 866 866 866 866 865 865
840 841 842 844 845 846 846 847 847 848 848 849 849 850 850 851 852 853 854 854 855 856 856 857 857 858 859 860 860 861 862 862 863 863 864 864 864 864 864 864 864 864
838 840 841 843 844 845 845 846 846 847 847 847 848 848 849 849 850 851 852 853 854 854 855 855 856 857 857 858 859 859 860 860 861 861 862 862 862 863 863 863 863 863
837 839 840 842 843 844 844 845 846 846 846 846 846 846 847 847 848 849 850 851 852 852 854 854 855 856 856 857 857 857 858 858 859 860 860 861 861 861 861 861 861 861
835 837 839 840 842 843 843 844 844 844 845 845 845 845 846 846 846 847 847 849 849 850 852 853 854 854 854 855 855 856 856 856 857 858 858 859 859 860 860 860 859 859
833 835 837 839 841 842 842 842 843 843 843 843 843 844 844 845 845 846 846 847 847 848 849 850 851 852 853 853 854 854 855 855 855 856 856 857 857 858 858 858 857 857
833 834 836 839 840 841 841 841 842 842 841 841 841 841 842 843 844 844 845 845 846 846 847 848 849 850 851 851 852 852 853 853 853 854 854 854 855 855 855 855 855 856
831 833 836 839 840 840 841 841 842 841 841 840 840 840 841 841 842 842 843 844 844 844 845 845 847 848 848 849 850 850 851 851 851 851 852 852 853 853 853 853 853 854
828 831 834 837 840 841 841 842 842 841 841 840 840 840 840 840 840 840 841 841 841 842 843 843 844 845 846 847 848 848 849 849 849 849 850 850 851 851 851 851 851 852
828 829 831 834 838 840 841 842 843 842 841 840 840 840 840 840 840 840 840 840 840 840 841 842 842 843 843 844 845 846 847 847 847 848 848 849 849 849 849 849 849 850
827 829 830 832 834 836 837 840 842 842 841 840 840 840 840 839 839 839 839 839 839 840 840 840 841 841 842 843 844 845 845 846 846 846 846 847 847 847 847 847 848 849
826 828 830 831 832 832 832 835 838 840 840 839 839 839 839 838 838 838 838 838 838 839 839 839 840 840 841 841 842 843 844 844 845 845 845 846 846 846 846 846 846 847
825 827 828 830 831 830 830 831 834 837 838 837 837 837 837 838 837 837 837 837 838 838 838 838 839 839 840 840 841 841 842 842 843 844 844 844 844 844 844 845 845 846
824 825 826 827 828 828 829 830 832 834 836 837 836 836 836 836 836 836 836 837 837 838 838 838 838 838 839 839 839 840 840 841 842 842 842 842 841 841 842 842 843 844